Regional Weather Roundup
Issued by NWS

Home | Current Version | Previous Version | Text Only | Print | Product List | Glossary On
Versions: 1 2 3 4 5 6 7 8 9 10 11 12 13 14 15 16 17 18 19 20 21 22 23 24 25 26 27
000
ASUS45 KREV 240710
RWRNV
NEVADA REGIONAL WEATHER ROUNDUP
NATIONAL WEATHER SERVICE RENO NV
1200 AM PDT WED AUG 24 2016

NOTE: "FAIR" INDICATES FEW OR NO CLOUDS BELOW 12,000 FEET WITH NO
SIGNIFICANT WEATHER AND/OR OBSTRUCTIONS TO VISIBILITY.

NVZ001-003-004-240800-
WESTERN NEVADA

CITY           SKY/WX    TMP DP  RH WIND       PRES   REMARKS
RENO           CLEAR     68  29  23 S7        30.20S
CARSON CITY    FAIR      66  27  22 CALM      30.24S
MINDEN         FAIR      57  36  44 NE8       30.24S
PYRAMID LAKE     N/A     75 N/A N/A S6          N/A
FALLON         CLEAR     73  27  18 W7        30.14R
LOVELOCK       CLEAR     64  22  20 CALM      30.12S
HAWTHORNE        N/A    N/A N/A N/A MISG        N/A
$$

NVZ002-CAZ072-073-240800-
NORTHERN AND CENTRAL SIERRA

CITY           SKY/WX    TMP DP  RH WIND       PRES   REMARKS
S. LAKE TAHOE  CLEAR     54  29  38 SW3       30.33F
TRUCKEE        CLEAR     45  32  61 CALM      30.34S
SQUAW VLY 8000 NOT AVBL
SUSANVILLE     CLEAR     68  36  30 NW7       30.19S
MAMMOTH LAKES  FAIR      54  34  47 CALM      30.40S
BRIDGEPORT       N/A     56  28  34 CALM      30.36S
$$

NVZ030-031-036-240800-
NORTHERN NEVADA

CITY           SKY/WX    TMP DP  RH WIND       PRES   REMARKS
ELKO           CLEAR     62  19  19 E3        30.19R
WINNEMUCCA     CLEAR     67  17  14 N10       30.15R
WENDOVER       CLEAR     70  21  16 W6        30.12S
$$

NVZ035-037-240800-
CENTRAL NEVADA

CITY           SKY/WX    TMP DP  RH WIND       PRES   REMARKS
ELY            CLEAR     52  34  50 S10       30.24S
EUREKA           N/A     53  28  38 SE5       30.22S
$$

NVZ013-014-240800-
SOUTH CENTRAL NEVADA

CITY           SKY/WX    TMP DP  RH WIND       PRES   REMARKS
TONOPAH        CLEAR     75  29  18 NW16      30.21F
$$

NVZ017-020-022-240800-
SOUTHERN NEVADA

CITY           SKY/WX    TMP DP  RH WIND       PRES   REMARKS
LAS VEGAS      TSTM      81  56  42 VRB3      30.01F
N. LAS VEGAS   RAIN      78  58  49 SW12      30.01F
NELLIS AFB     TSTM      90  43  19 SW22G29   29.98F
HENDERSON      CLOUDY    83  49  30 N10       30.08R
MERCURY        PTCLDY    80  44  27 E22G31    30.06F
$$




USA.gov is the U.S. government's official web portal to all federal, state and local government web resources and services.